Location: Clyde
(45.1830°S, 169.3170°E)
Time: 16:40:25
(UTC+12:00)

CORIOLIS - Pass Details

Date: 14 May 2021
Orbit: 817 x 839 km, 98.7° (Epoch: 16 June)

Event Time Altitude Azimuth Distance (km) Brightness Sun altitude
Rises 18:55:06 0° 163° (SSE) 3,422 7.1 -15.9°
Reaches altitude 10° 18:57:32 10° 158° (SSE) 2,484 6.3 -16.3°
Maximum altitude 19:02:57 57° 79° (E) 994 4.2 -17.3°
Drops below altitude 10° 19:08:20 10° 0° (N) 2,460 6.7 -18.2°
Sets 19:10:44 0° 356° (N) 3,387 7.5 -18.6°
